Meteo Giornale » Osservazioni meteo Svizzera » Samedan

ore: 10:20 - Osservazioni Meteo Samedan
Lat. 46° 32' N Lon. 9° 53' E Alt. 1706 metri s.l.m.

nuvoloso Europe/Zurich

15 °C

Nuvoloso

Temp. 24 Ore

11 °C

18 °C

Nord

5.5 Km/h

Dew point 11 °C

Umidità 76 %

Visibilità  10 Km

Il sole sorge alle ore 07:07

Il sole tramonta alle ore 19:17

Data e Ora Cielo e Fenomeni T °C DP °C Um. % Pres. hPa Vis. km Vento km/h
Oggi h: 10:20 nuvoloso Nuvoloso 15 11 76 1024 10 N 5.5
Oggi h: 09:50 nuvoloso Nuvoloso 15 11 76 1024 10 S 7.4
Oggi h: 09:20 nuvoloso Nuvoloso 14 11 82 1024 10 S/SO 7.4
Oggi h: 08:50 molto_nuvoloso Molto Nuvoloso 13 11 87 1024 10 S 9.3
Oggi h: 08:20 molto_nuvoloso Molto Nuvoloso 13 11 87 1024 10 S/SO 7.4
Oggi h: 07:50 molto_nuvoloso Molto Nuvoloso 12 10 87 1024 10 S 7.4
Oggi h: 07:20 nuvoloso Nuvoloso 11 10 93 1023 10 N 5.5
Oggi h: 06:50 molto_nuvoloso Molto Nuvoloso 12 10 87 1024 10 S 7.4
Oggi h: 05:50 coperto Coperto 13 10 81 1024 10 S 7.4
Oggi h: 05:20 molto_nuvoloso Molto Nuvoloso 13 10 81 1024 10 S 16.7
Oggi h: 04:50 coperto Coperto 14 10 76 1024 10 S/SE 13
Oggi h: 04:20 coperto Coperto 14 10 76 1024 10 S/SE 16.7
Oggi h: 03:50 molto_nuvoloso Molto Nuvoloso 14 10 76 1024 10 S/SE 18.5
Oggi h: 03:20 coperto Coperto 14 10 76 1024 10 SE 13
Oggi h: 02:50 coperto Coperto 14 10 76 1024 10 S/SE 16.7
Oggi h: 02:20 coperto Coperto 13 11 87 1024 10 N 13
Oggi h: 01:50 coperto_pioggia Pioggia Debole 14 11 82 1024 10 SO 11.1
Oggi h: 01:20 coperto Coperto 14 10 76 1024 10 SO 14.8
Oggi h: 00:50 coperto Coperto 14 11 82 1024 10 S/SO 14.8
Oggi h: 00:20 coperto Coperto 14 10 76 1024 10 S 13
Ieri h: 23:50 coperto Coperto 14 11 82 1024 10 S 13
Ieri h: 23:20 coperto Coperto 14 11 82 1024 10 SO 20.3
Ieri h: 22:50 coperto Coperto 14 11 82 1024 10 S/SO 20.3
Ieri h: 22:20 molto_nuvoloso Molto Nuvoloso 14 11 82 1024 10 SO 27.8
Ieri h: 21:50 molto_nuvoloso Molto Nuvoloso 14 11 82 1024 10 S/SO 20.3
Ieri h: 21:20 coperto Coperto 14 9 71 1024 10 S 14.8
Ieri h: 20:50 coperto Coperto 14 9 71 1024 10 S 11.1
Ieri h: 20:20 coperto Coperto 14 8 67 1024 10 S 13
Ieri h: 19:50 molto_nuvoloso Molto Nuvoloso 14 8 67 1023 10 S 13
Ieri h: 19:20 molto_nuvoloso Molto Nuvoloso 15 8 62 1023 10 N 7.4
Ieri h: 18:50 molto_nuvoloso Molto Nuvoloso 15 7 58 1023 10 SO 16.7
Ieri h: 18:20 molto_nuvoloso Molto Nuvoloso 16 7 55 1023 10 SO 14.8
Ieri h: 17:50 molto_nuvoloso Molto Nuvoloso 16 8 58 1022 10 SO 18.5
Ieri h: 17:20 molto_nuvoloso Molto Nuvoloso 16 7 55 1022 10 SO 24
Ieri h: 16:50 molto_nuvoloso Molto Nuvoloso 17 6 48 1022 10 SO 24
Ieri h: 16:20 poco_nuvoloso Poco Nuvoloso 17 7 51 1022 10 SO 24
Ieri h: 15:50 poco_nuvoloso Poco Nuvoloso 17 7 51 1022 10 SO 25.9
Ieri h: 15:20 sereno Sereno 18 5 42 1022 10 SO 24
Ieri h: 14:50 sereno Sereno 18 5 42 1022 10 N 3.7
Ieri h: 14:20 sereno Sereno 17 5 45 1022 10 N 3.7
Ieri h: 13:50 sereno Sereno 16 3 41 1022 10 N/NE 9.3
Ieri h: 13:20 sereno Sereno 15 5 51 1023 10 NE 11.1
Ieri h: 12:50 sereno Sereno 15 7 58 1023 10 N/NE 11.1
Ieri h: 12:20 sereno Sereno 14 7 62 1023 10 N/NE 7.4
Ieri h: 11:50 nuvoloso Nuvoloso 13 9 76 1023 10 N 5.5
Ieri h: 11:20 nuvoloso Nuvoloso 12 8 76 1024 10 N 11.1
Ieri h: 10:50 nuvoloso Nuvoloso 11 8 81 1024 10 N/NE 16.7